Total_Precipitation_Accumulation
0.12 0.10 0.20 0.15 0.13 0.15 0.18 0.21 0.21 0.19 0.18 0.17 0.14 0.11 0.09 0.10 0.09 0.08 0.10 0.14 0.19 0.22 0.26 0.32 0.38 0.41 0.44 0.45 0.45 0.43 0.45 0.50 0.62 0.63 0.62 0.66 0.80 1.03 1.19 1.17 1.18 0.80 0.68
0.03 0.05 0.16 0.11 0.10 0.12 0.14 0.19 0.19 0.19 0.17 0.17 0.15 0.13 0.12 0.11 0.11 0.11 0.15 0.20 0.23 0.25 0.28 0.33 0.34 0.32 0.34 0.34 0.34 0.36 0.41 0.55 0.77 0.85 0.90 0.84 0.99 1.16 1.15 1.07 1.16 0.72 0.67
0.02 0.03 0.08 0.10 0.09 0.09 0.11 0.15 0.17 0.16 0.17 0.17 0.16 0.14 0.16 0.18 0.16 0.15 0.19 0.23 0.24 0.25 0.26 0.25 0.25 0.25 0.26 0.29 0.31 0.37 0.44 0.67 0.99 1.21 1.36 1.14 0.81 1.12 1.15 1.05 0.89 0.60 0.68
0.02 0.02 0.04 0.09 0.09 0.09 0.10 0.13 0.16 0.17 0.16 0.16 0.15 0.16 0.17 0.20 0.24 0.23 0.22 0.24 0.27 0.27 0.25 0.24 0.23 0.22 0.23 0.28 0.35 0.45 0.55 0.73 1.04 1.43 1.67 1.05 0.57 0.73 0.84 0.77 0.71 0.62 0.62
0.04 0.04 0.09 0.11 0.09 0.09 0.10 0.13 0.16 0.16 0.15 0.15 0.15 0.16 0.18 0.21 0.26 0.28 0.26 0.26 0.29 0.30 0.26 0.23 0.20 0.20 0.22 0.27 0.38 0.49 0.60 0.77 1.02 1.25 1.12 1.04 0.88 0.75 0.67 0.60 0.62 0.59 0.51
0.05 0.06 0.09 0.12 0.10 0.09 0.09 0.11 0.14 0.15 0.15 0.17 0.18 0.19 0.21 0.22 0.25 0.25 0.23 0.25 0.31 0.30 0.28 0.23 0.18 0.21 0.26 0.28 0.38 0.52 0.62 0.78 0.94 0.79 0.68 0.80 0.73 0.76 0.71 0.71 0.73 0.62 0.51
0.07 0.06 0.08 0.11 0.11 0.11 0.10 0.12 0.14 0.14 0.15 0.17 0.19 0.20 0.23 0.25 0.27 0.26 0.23 0.24 0.28 0.30 0.28 0.23 0.21 0.24 0.27 0.31 0.38 0.50 0.70 0.85 0.87 0.65 0.62 0.76 0.62 0.58 0.74 0.88 0.97 0.83 0.67
0.11 0.07 0.09 0.14 0.16 0.17 0.15 0.16 0.16 0.15 0.15 0.17 0.18 0.19 0.22 0.25 0.25 0.26 0.26 0.26 0.28 0.32 0.28 0.22 0.25 0.30 0.32 0.37 0.41 0.49 0.65 0.71 0.69 0.60 0.60 0.63 0.44 0.51 0.75 0.99 1.11 1.02 0.91
0.23 0.20 0.15 0.16 0.19 0.22 0.23 0.21 0.22 0.19 0.18 0.19 0.20 0.20 0.24 0.24 0.24 0.25 0.32 0.33 0.33 0.34 0.32 0.25 0.23 0.23 0.27 0.33 0.40 0.48 0.63 0.75 0.73 0.68 0.56 0.51 0.42 0.54 0.83 1.00 1.07 1.09 1.05
0.57 0.43 0.27 0.24 0.25 0.22 0.21 0.25 0.27 0.22 0.21 0.21 0.20 0.22 0.24 0.26 0.27 0.31 0.34 0.39 0.42 0.43 0.40 0.33 0.27 0.26 0.31 0.38 0.46 0.60 0.74 0.71 0.69 0.75 0.75 0.54 0.51 0.66 0.86 0.98 1.14 1.20 1.12
1.06 0.88 0.52 0.38 0.35 0.32 0.27 0.27 0.34 0.32 0.29 0.30 0.33 0.33 0.39 0.50 0.52 0.61 0.60 0.63 0.63 0.60 0.56 0.53 0.51 0.48 0.45 0.41 0.54 0.74 0.74 0.69 0.95 1.02 0.74 0.58 0.65 0.87 1.04 1.14 1.21 1.22 1.20
1.24 1.11 0.81 0.69 0.51 0.42 0.38 0.46 0.59 0.55 0.57 0.54 0.64 0.64 0.82 1.04 0.98 0.78 0.88 1.08 1.09 1.09 1.00 1.00 1.00 0.82 0.64 0.61 1.07 1.37 0.96 0.99 1.11 0.87 0.70 0.77 1.01 1.29 1.53 1.44 1.30 1.18 1.10
1.38 1.23 0.98 0.93 0.83 0.66 0.71 0.64 0.72 0.84 0.95 0.83 0.84 0.91 1.22 1.17 0.94 0.91 1.01 1.24 1.46 1.42 1.33 1.50 1.58 1.26 1.20 1.44 1.75 1.65 1.23 1.29 1.25 1.06 0.85 1.02 1.36 1.75 2.00 1.87 1.60 1.35 1.17
1.70 1.52 1.30 1.15 1.01 0.94 0.90 0.83 0.82 0.81 0.97 0.97 1.10 1.13 1.30 1.49 1.41 1.36 1.44 1.50 1.63 1.75 2.03 2.01 2.07 1.89 1.79 1.73 1.87 1.70 1.49 1.53 1.42 1.51 1.54 1.58 1.63 1.88 2.30 2.25 1.91 1.63 1.44
2.20 2.06 1.85 1.52 1.44 1.33 1.35 1.31 1.12 1.12 1.20 1.30 1.45 1.44 1.42 1.63 1.65 1.72 1.74 1.80 1.70 1.80 2.01 2.25 2.19 2.25 2.32 2.12 1.85 1.72 1.76 1.78 1.84 1.78 1.73 1.96 1.87 1.85 2.29 2.40 2.15 1.89 1.73
2.87 2.86 2.64 2.29 2.20 2.05 1.83 1.67 1.60 1.48 1.56 1.59 1.67 1.65 1.67 1.89 2.04 1.99 1.83 1.85 1.79 1.83 1.92 2.11 2.22 2.53 2.50 2.41 2.00 1.83 1.85 1.93 1.93 1.99 1.90 2.18 2.07 1.82 2.03 2.28 2.38 2.22 2.00
3.16 3.30 3.27 3.11 3.06 2.88 2.58 2.22 1.99 1.94 1.84 1.94 2.03 1.97 2.01 2.09 2.22 2.15 2.01 1.85 1.90 1.95 2.06 2.10 2.23 2.50 2.49 2.37 2.14 2.00 1.92 1.77 1.65 1.70 1.76 1.92 1.86 1.76 1.83 2.02 2.27 2.33 2.22
3.44 3.62 3.81 3.76 3.71 3.45 3.15 2.81 2.51 2.34 2.26 2.24 2.21 2.17 2.10 2.24 2.27 2.24 2.05 1.84 2.01 2.01 2.08 2.26 2.36 2.50 2.65 2.65 2.38 2.12 1.96 1.80 1.61 1.58 1.53 1.53 1.65 1.40 1.61 1.83 2.00 2.12 2.39
3.80 4.16 4.50 4.54 4.41 4.03 3.59 3.31 3.17 2.93 2.68 2.49 2.45 2.29 2.22 2.28 2.20 2.24 2.02 1.93 2.08 2.21 2.20 2.05 2.39 2.64 2.67 2.70 2.31 2.12 1.81 1.62 1.46 1.35 1.37 1.26 1.30 1.29 1.35 1.44 1.60 1.72 2.19
4.30 4.87 4.87 4.76 4.99 4.76 4.38 4.07 3.76 3.36 3.03 2.74 2.58 2.39 2.17 2.05 2.04 2.26 1.95 1.92 2.13 2.27 2.23 2.28 2.54 2.67 2.55 2.64 2.31 1.94 1.60 1.27 1.19 1.10 1.01 1.01 0.97 0.87 0.97 1.21 1.53 1.42 1.81
4.10 4.63 5.13 5.15 5.01 4.78 4.41 3.92 3.51 3.13 2.92 2.67 2.42 2.22 2.14 2.12 2.20 2.47 2.16 2.21 2.20 2.15 2.14 2.32 2.48 2.39 2.24 2.63 2.65 2.01 1.39 1.05 0.92 0.75 0.74 0.74 0.67 0.69 0.92 1.24 1.44 1.51 1.40
3.47 3.89 4.28 4.49 4.13 3.70 3.47 3.36 3.19 3.11 2.74 2.55 2.49 2.46 2.30 2.31 2.30 2.28 2.31 2.19 2.20 2.20 2.03 2.09 2.30 2.19 1.87 2.24 2.46 2.38 1.74 1.28 0.92 0.58 0.59 0.57 0.60 0.74 0.80 0.90 1.17 1.45 1.40
2.89 3.05 3.19 3.31 3.26 3.21 3.26 3.33 3.35 3.37 3.04 2.89 2.78 2.72 2.47 2.41 2.35 2.35 2.16 2.01 2.02 1.95 1.84 1.82 1.99 2.08 1.88 1.85 2.15 2.48 1.98 1.39 1.07 0.73 0.67 0.65 0.78 0.95 0.92 0.96 1.02 1.15 1.25
2.25 2.50 2.89 3.00 3.03 3.16 3.40 3.40 3.35 3.24 3.11 3.10 3.19 3.17 3.07 2.85 2.60 2.37 2.14 1.92 1.79 1.68 1.68 1.50 1.69 1.82 1.90 1.61 1.70 1.81 1.72 1.66 1.57 1.13 0.84 0.77 0.92 0.99 1.02 1.03 1.04 1.14 1.25
1.89 2.13 2.56 2.99 3.19 3.35 3.56 3.62 3.75 3.64 3.45 3.29 3.30 3.30 3.09 2.90 2.66 2.34 2.17 1.99 1.82 1.67 1.56 1.48 1.60 1.54 1.56 1.45 1.50 1.54 1.56 1.55 1.46 1.40 1.14 1.04 1.01 0.79 0.79 0.86 1.02 1.32 1.40
2.04 2.20 2.39 2.71 3.10 3.35 3.46 3.48 3.46 3.40 3.29 3.08 2.95 2.71 2.45 2.37 2.26 2.07 1.92 1.79 1.65 1.61 1.58 1.49 1.48 1.44 1.44 1.46 1.46 1.42 1.48 1.52 1.50 1.55 1.38 1.23 1.10 0.88 0.84 0.86 0.96 1.15 1.26